Zurück zum Katalog

BREEZE-M DEB

LostHEO
NORAD 38628·DEBRIS·🇷🇺 Russia

Gestartet Mar 14, 2008 von Baikonur Cosmodrome

Loading…

Nächste Überflüge (nächste 24 Stunden)

TLE

VeraltetSource: Space-Track

Epoche: Mar 11, 2016, 09:24 UTC

1 38628U 08011CB  16071.39190343  .00001856  00000-0  52750-2 0  9995
2 38628  48.7897 173.5329 6533135 223.5434 141.3492  3.13123694 49055

Verfolge BREEZE-M DEB in Echtzeit mit AllMySat

Download on the App Store